FW2402 Weather Reports


time (UTC)temp
F
wind
direction
speed
knots
gust
knots
rain 1hr
in
rain 24hr
in
rain mn
in
humidity
%
barometer
mb
20260901081025 74 0 0.0 0.0 0.00 0.15 0.00 97 1014.8
20260901080525 74 0 0.0 0.0 0.00 0.15 0.00 97 1014.7
20260901080045 74 0 0.0 0.0 0.00 0.15 0.00 97 1014.8
20260901075525 74 0 0.0 0.0 0.00 0.15 0.00 97 1014.9
20260901075024 73 0 0.0 0.0 0.00 0.15 0.00 97 1014.9
20260901074541 73 0 0.0 0.0 0.00 0.15 0.00 97 1014.9
20260901074024 73 0 0.0 0.0 0.00 0.15 0.00 97 1014.9
20260901073524 73 0 0.0 0.0 0.00 0.15 0.00 97 1014.9
20260901073042 73 0 0.0 0.0 0.00 0.15 0.00 97 1014.9
20260901072524 73 0 0.0 0.0 0.00 0.15 0.00 97 1015.0
20260901072024 72 0 0.0 0.0 0.00 0.15 0.00 97 1014.9
20260901071540 73 0 0.0 0.0 0.00 0.15 0.00 97 1015.0
20260901071025 73 0 0.0 0.9 0.00 0.15 0.00 97 1015.0
20260901070526 73 0 0.0 0.9 0.00 0.15 0.00 97 1015.1
20260901070044 73 0 0.0 0.0 0.00 0.15 0.00 97 1015.3
20260901065525 73 0 0.0 0.9 0.00 0.15 0.00 97 1015.3
20260901065021 73 0 0.0 0.9 0.00 0.15 0.00 97 1015.5
20260901064543 73 0 0.0 0.9 0.00 0.15 0.00 97 1015.5
20260901064022 73 0 0.0 0.0 0.00 0.15 0.00 97 1015.7
20260901063517 73 0 0.0 0.0 0.00 0.15 0.00 97 1015.8
20260901063041 73 0 0.0 0.0 0.00 0.15 0.00 97 1015.7
20260901062518 73 0 0.0 0.0 0.00 0.15 0.00 97 1015.9
20260901062025 73 0 0.0 0.0 0.00 0.15 0.00 97 1016.0
20260901061541 73 0 0.0 0.0 0.00 0.15 0.00 96 1016.2
20260901061023 73 0 0.0 0.0 0.00 0.15 0.00 96 1016.3
20260901060525 73 0 0.0 0.0 0.00 0.15 0.00 97 1016.4
20260901060043 73 0 0.0 0.0 0.00 0.15 0.00 96 1016.4
20260901055524 73 0 0.0 0.0 0.00 0.15 0.00 97 1016.5
20260901055021 73 0 0.0 0.9 0.00 0.15 0.00 97 1016.4
20260901054544 73 0 0.0 1.7 0.00 0.15 0.00 96 1016.4
20260901054020 73 0 0.0 1.7 0.00 0.15 0.00 96 1016.5
20260901053520 73 290 0.9 1.7 0.00 0.15 0.00 96 1016.6
20260901053104 73 290 0.0 1.7 0.00 0.15 0.00 97 1016.6
20260901052527 73 0 0.0 0.0 0.00 0.15 0.00 96 1016.6
20260901052023 73 0 0.0 0.0 0.00 0.15 0.00 97 1016.7
20260901051559 73 0 0.0 0.0 0.00 0.15 0.00 96 1016.7
20260901051023 73 0 0.0 0.0 0.00 0.15 0.00 96 1016.6
20260901050518 73 0 0.0 0.0 0.00 0.15 0.00 96 1016.6
20260901050042 73 0 0.0 0.0 0.00 0.15 0.00 96 1016.6
20260901045521 73 0 0.0 0.0 0.00 0.15 0.00 96 1016.7
20260901045027 73 0 0.0 0.0 0.00 0.15 0.00 96 1016.8
20260901044553 73 0 0.0 0.0 0.00 0.15 0.00 96 1016.8
20260901044025 73 0 0.0 0.0 0.00 0.15 0.00 96 1016.9
20260901043523 73 0 0.0 0.0 0.00 0.15 0.00 96 1016.9
20260901043044 73 0 0.0 0.0 0.00 0.15 0.00 96 1017.1
20260901042521 74 0 0.0 0.0 0.00 0.15 0.00 96 1017.0
20260901042020 74 0 0.0 0.0 0.00 0.15 0.00 96 1017.1
20260901041541 73 0 0.0 0.0 0.00 0.15 0.00 96 1017.1
20260901041021 74 0 0.0 0.0 0.00 0.15 0.00 96 1017.1
20260901040525 74 0 0.0 0.0 0.00 0.15 0.00 96 1017.0
20260901040108 74 0 0.0 0.0 0.00 0.15 0.00 96 1017.1
20260901035529 74 0 0.0 0.0 0.00 0.15 0.15 96 1017.1
20260901035023 74 0 0.0 0.0 0.00 0.15 0.15 96 1017.2
20260901034559 74 0 0.0 0.0 0.00 0.15 0.15 96 1017.0
20260901034022 74 0 0.0 0.0 0.00 0.15 0.15 96 1017.0
20260901033520 74 0 0.0 0.0 0.00 0.15 0.15 96 1017.0
20260901033042 74 0 0.0 0.0 0.00 0.15 0.15 96 1017.1
20260901032525 74 0 0.0 0.0 0.00 0.15 0.15 96 1017.2
20260901032025 74 0 0.0 0.0 0.00 0.15 0.15 96 1017.1
20260901031543 74 0 0.0 0.0 0.00 0.15 0.15 96 1017.1
20260901031023 74 0 0.0 0.0 0.00 0.15 0.15 96 1017.1
20260901030523 74 0 0.0 0.0 0.00 0.15 0.15 96 1017.2
20260901030042 74 0 0.0 0.0 0.00 0.15 0.15 96 1017.2
20260901025524 74 0 0.0 0.0 0.00 0.15 0.15 96 1017.3
20260901025021 74 0 0.0 0.0 0.00 0.15 0.15 96 1017.3
20260901024545 74 0 0.0 0.0 0.00 0.15 0.15 96 1017.3
20260901024028 74 0 0.0 0.0 0.00 0.15 0.15 96 1017.3
20260901023525 74 0 0.0 0.0 0.00 0.15 0.15 96 1017.2
20260901023105 74 0 0.0 0.0 0.00 0.15 0.15 96 1017.2
20260901022524 74 0 0.0 0.0 0.00 0.15 0.15 96 1017.1
20260901022023 74 0 0.0 0.0 0.00 0.15 0.15 96 1017.0
20260901021552 74 0 0.0 0.0 0.00 0.15 0.15 96 1017.0
20260901021026 74 0 0.0 0.0 0.00 0.15 0.15 95 1017.0
20260901020525 74 0 0.0 2.6 0.00 0.15 0.15 95 1016.8
20260901020050 74 0 0.0 2.6 0.00 0.15 0.15 95 1016.7
20260901015526 74 290 0.9 2.6 0.00 0.15 0.15 95 1016.7
20260901015026 74 36 0.0 0.9 0.00 0.15 0.15 95 1016.6
20260901014554 75 0 0.0 0.0 0.00 0.15 0.15 95 1016.6
20260901014024 75 0 0.0 0.0 0.00 0.15 0.15 95 1016.4
20260901013524 75 0 0.0 0.0 0.00 0.15 0.15 95 1016.3
20260901013045 75 0 0.0 0.0 0.00 0.15 0.15 95 1016.3
20260901012525 75 0 0.0 0.0 0.00 0.15 0.15 95 1016.3
20260901012025 75 0 0.0 0.0 0.00 0.15 0.15 95 1016.1
20260901011549 75 0 0.0 0.0 0.00 0.15 0.15 95 1016.1
20260901011025 75 0 0.0 0.0 0.00 0.15 0.15 95 1016.0
20260901010526 75 0 0.0 0.0 0.00 0.15 0.15 95 1016.0
20260901010045 75 0 0.0 2.6 0.00 0.15 0.15 95 1016.1
20260901005530 75 0 0.0 2.6 0.00 0.15 0.15 94 1015.9
20260901005028 75 36 0.9 2.6 0.00 0.15 0.15 94 1015.9
20260901004558 75 90 0.9 2.6 0.00 0.15 0.15 94 1015.8
20260901004025 76 90 0.0 0.9 0.00 0.15 0.15 94 1015.8
20260901003526 76 0 0.0 0.0 0.00 0.15 0.15 94 1015.8
20260901003044 75 0 0.0 0.0 0.00 0.15 0.15 94 1015.8
20260901002526 75 0 0.0 0.0 0.00 0.15 0.15 94 1015.8
20260901002024 75 0 0.0 0.0 0.00 0.15 0.15 94 1015.8
20260901001542 75 0 0.0 0.0 0.00 0.15 0.15 94 1015.9
20260901001026 76 0 0.0 0.0 0.00 0.15 0.15 93 1015.9
20260901000525 76 0 0.0 2.6 0.00 0.15 0.15 93 1015.7
20260901000049 76 0 0.0 3.5 0.00 0.15 0.15 93 1015.6
20260831235525 76 90 0.9 3.5 0.00 0.15 0.15 93 1015.6
20260831235026 76 79 0.9 3.5 0.00 0.15 0.15 93 1015.5
20260831234545 76 0 0.0 1.7 0.00 0.15 0.15 93 1015.6
20260831234024 77 86 0.0 1.7 0.00 0.15 0.15 92 1015.6
20260831233524 77 0 0.0 2.6 0.00 0.15 0.15 93 1015.6
20260831233042 77 90 0.0 3.5 0.00 0.15 0.15 93 1015.6
20260831232535 76 110 0.9 3.5 0.00 0.15 0.15 93 1015.7
20260831232025 76 92 1.7 3.5 0.00 0.15 0.15 92 1015.7
20260831231544 77 118 1.7 3.5 0.00 0.15 0.15 92 1015.7
20260831231025 77 83 1.7 4.3 0.00 0.15 0.15 92 1015.6
20260831230529 77 81 1.7 6.1 0.00 0.15 0.15 92 1015.6
20260831230046 77 76 1.7 6.1 0.00 0.15 0.15 93 1015.7
20260831225523 77 119 1.7 5.2 0.00 0.15 0.15 92 1015.6
20260831225026 77 101 1.7 7.0 0.00 0.15 0.15 92 1015.6
20260831224541 77 73 2.6 7.0 0.01 0.15 0.15 92 1015.5
20260831224025 77 57 3.5 7.8 0.01 0.15 0.15 93 1015.4
20260831223530 76 90 4.3 9.6 0.02 0.15 0.15 93 1015.5
20260831223042 76 85 5.2 9.6 0.04 0.15 0.15 93 1015.5
20260831222524 76 78 4.3 10.4 0.04 0.15 0.15 93 1015.7
20260831222026 76 68 4.3 11.3 0.05 0.15 0.15 93 1015.7
20260831221556 76 58 7.0 12.2 0.06 0.15 0.15 94 1015.5
20260831221028 77 85 6.1 12.2 0.07 0.15 0.15 94 1015.6
20260831220520 77 86 5.2 9.6 0.08 0.15 0.15 94 1015.6
20260831220057 77 60 4.3 7.8 0.09 0.15 0.15 94 1015.6
20260831215519 77 115 2.6 7.8 0.09 0.15 0.15 94 1015.7
20260831215026 77 89 4.3 9.6 0.10 0.15 0.15 94 1015.8
20260831214549 77 96 2.6 9.6 0.10 0.14 0.14 94 1015.9
20260831214026 77 89 4.3 9.6 0.10 0.13 0.13 94 1015.9
20260831213524 77 85 4.3 7.8 0.09 0.12 0.12 94 1016.1
20260831213047 77 111 2.6 7.0 0.09 0.11 0.11 94 1016.1
20260831212526 76 107 2.6 7.0 0.09 0.11 0.11 94 1016.0
20260831212024 76 98 2.6 7.0 0.10 0.10 0.10 94 1016.0
20260831211542 76 106 2.6 7.0 0.09 0.09 0.09 94 1015.9
20260831211022 76 61 3.5 6.1 0.08 0.08 0.08 94 1015.9
20260831210519 76 64 3.5 6.1 0.07 0.07 0.07 94 1015.8
20260831210042 76 89 2.6 6.1 0.06 0.06 0.06 94 1015.8
20260831205527 76 66 2.6 6.1 0.06 0.06 0.06 94 1015.9
20260831205026 76 88 2.6 7.0 0.04 0.04 0.04 94 1016.1
20260831204554 76 78 2.6 7.0 0.04 0.04 0.04 93 1016.1
20260831204026 76 63 3.5 7.0 0.03 0.03 0.03 93 1016.2
20260831203523 76 66 3.5 8.7 0.03 0.03 0.03 93 1016.2
20260831203045 76 85 4.3 8.7 0.02 0.02 0.02 92 1016.2
20260831202521 77 57 4.3 7.8 0.02 0.02 0.02 91 1016.3
20260831202027 77 63 1.7 10.4 0.00 0.00 0.00 91 1016.4
20260831201542 78 89 3.5 10.4 0.00 0.00 0.00 90 1016.4
20260831201023 78 118 5.2 10.4 0.00 0.00 0.00 89 1016.3
20260831200526 78 105 6.1 13.9 0.00 0.00 0.00 89 1016.3
20260831200054 78 84 7.0 15.6 0.00 0.00 0.00 89 1016.2
20260831195528 79 91 8.7 20.0 0.00 0.00 0.00 88 1016.1
20260831195025 79 86 9.6 21.7 0.00 0.00 0.00 87 1016.0
20260831194544 81 45 13.0 21.7 0.00 0.00 0.00 84 1016.0
20260831194025 84 57 9.6 19.1 0.00 0.00 0.00 79 1015.9
20260831193519 86 69 7.8 15.6 0.00 0.00 0.00 75 1015.7
20260831193044 89 76 6.1 11.3 0.00 0.00 0.00 71 1015.5
20260831192521 91 309 0.9 3.5 0.00 0.00 0.00 70 1015.2
20260831192026 92 313 0.9 4.3 0.00 0.00 0.00 67 1015.1
20260831191538 92 257 0.9 5.2 0.00 0.00 0.00 67 1015.1
20260831191021 91 36 1.7 7.0 0.00 0.00 0.00 65 1015.2
20260831190525 90 256 1.7 7.0 0.00 0.00 0.00 70 1015.3
20260831190057 90 256 2.6 6.1 0.00 0.00 0.00 67 1015.3
20260831185525 90 275 1.7 4.3 0.00 0.04 0.00 70 1015.3
20260831185025 89 0 0.0 4.3 0.00 0.04 0.00 72 1015.3
20260831184543 90 319 0.0 4.3 0.00 0.04 0.00 70 1015.5
20260831184020 90 301 0.0 2.6 0.00 0.04 0.00 72 1015.4
20260831183523 87 0 0.0 5.2 0.00 0.04 0.00 73 1015.5
20260831183041 88 0 0.0 5.2 0.00 0.04 0.00 73 1015.5
20260831182520 90 32 2.6 5.2 0.00 0.04 0.00 66 1015.6
20260831182021 90 294 0.9 3.5 0.00 0.04 0.00 68 1015.7
20260831181540 89 0 0.0 3.5 0.00 0.04 0.00 69 1015.8
20260831181025 90 123 0.9 3.5 0.00 0.04 0.00 71 1015.9
20260831180525 90 0 0.9 3.5 0.00 0.04 0.00 67 1016.0
20260831180050 89 270 0.9 3.5 0.00 0.04 0.00 71 1016.0
20260831175524 88 140 0.9 6.1 0.00 0.04 0.00 74 1016.0
20260831175024 88 281 3.5 6.1 0.00 0.04 0.00 67 1016.1
20260831174546 89 226 0.9 7.0 0.00 0.04 0.00 68 1016.2
20260831174022 90 39 2.6 7.0 0.00 0.04 0.00 70 1016.3
20260831173521 89 261 0.9 3.5 0.00 0.04 0.00 71 1016.3
20260831173041 89 302 0.0 3.5 0.00 0.04 0.00 73 1016.4
20260831172525 90 0 0.9 3.5 0.00 0.04 0.00 67 1016.6
20260831172025 90 55 0.0 4.3 0.00 0.04 0.00 70 1016.5
20260831171552 89 300 0.9 4.3 0.00 0.04 0.00 67 1016.5
20260831171025 88 0 0.9 6.1 0.00 0.04 0.00 70 1016.7
20260831170524 87 274 1.7 6.1 0.00 0.04 0.00 72 1016.8
20260831170043 89 281 0.9 4.3 0.00 0.04 0.00 73 1016.9
20260831165523 88 53 1.7 5.2 0.00 0.04 0.00 73 1017.0
20260831165023 87 72 2.6 5.2 0.00 0.04 0.00 73 1017.1
20260831164555 87 69 0.0 3.5 0.00 0.04 0.00 79 1017.2
20260831164024 85 294 1.7 2.6 0.00 0.04 0.00 75 1017.2
20260831163526 85 0 0.0 2.6 0.00 0.04 0.00 75 1017.2
20260831163052 88 0 0.0 2.6 0.00 0.04 0.00 72 1017.2
20260831162525 88 0 0.0 2.6 0.00 0.04 0.00 79 1017.4
20260831162026 87 0 0.0 2.6 0.00 0.04 0.00 75 1017.4
20260831161545 86 0 0.0 3.5 0.00 0.04 0.00 76 1017.4
20260831161023 86 0 0.9 5.2 0.00 0.04 0.00 75 1017.4
20260831160527 87 0 0.9 6.1 0.00 0.04 0.00 76 1017.5
20260831160047 87 63 2.6 6.1 0.00 0.04 0.00 74 1017.5
20260831155525 87 61 0.0 6.1 0.00 0.04 0.00 76 1017.4
20260831155026 87 93 2.6 6.1 0.00 0.04 0.00 75 1017.4
20260831154608 86 84 0.9 6.1 0.00 0.04 0.00 78 1017.5
20260831154028 84 275 1.7 2.6 0.00 0.04 0.00 79 1017.5
20260831153525 84 255 0.0 3.5 0.00 0.04 0.00 81 1017.6
20260831153049 85 0 0.0 3.5 0.00 0.04 0.00 77 1017.6
20260831152523 87 46 1.7 3.5 0.00 0.04 0.00 77 1017.6
20260831152023 87 108 0.9 3.5 0.00 0.04 0.00 78 1017.5
20260831151548 86 63 1.7 4.3 0.00 0.04 0.00 77 1017.6
20260831151025 86 42 1.7 4.3 0.00 0.04 0.00 79 1017.6
20260831150526 86 24 0.9 3.5 0.00 0.04 0.00 77 1017.5
20260831150050 85 105 0.0 5.2 0.00 0.04 0.00 80 1017.4
20260831145526 85 54 1.7 5.2 0.00 0.04 0.00 79 1017.5
20260831145025 85 45 0.9 4.3 0.00 0.04 0.00 81 1017.4
20260831144559 84 190 0.9 4.3 0.00 0.04 0.00 79 1017.4
20260831144024 84 144 1.7 3.5 0.00 0.04 0.00 82 1017.3
20260831143524 84 284 0.0 4.3 0.00 0.04 0.00 80 1017.3
20260831143050 84 61 1.7 4.3 0.00 0.04 0.00 81 1017.3
20260831142524 84 26 0.9 3.5 0.00 0.04 0.00 84 1017.2
20260831142028 83 49 0.9 2.6 0.00 0.04 0.00 82 1017.1
20260831141555 83 122 0.9 1.7 0.00 0.04 0.00 84 1017.2
20260831141024 83 142 0.0 2.6 0.00 0.04 0.00 84 1017.2
20260831140528 83 0 0.0 2.6 0.00 0.04 0.00 85 1017.3
20260831140048 82 69 0.0 2.6 0.00 0.04 0.00 85 1017.2
20260831135525 82 321 0.0 1.7 0.00 0.04 0.00 86 1017.2
20260831135028 81 0 0.0 2.6 0.00 0.04 0.00 88 1017.2
20260831134545 81 136 0.0 2.6 0.00 0.04 0.00 89 1017.2
20260831134022 81 0 0.0 1.7 0.00 0.04 0.00 89 1017.1
20260831133527 81 0 0.0 2.6 0.00 0.04 0.00 90 1017.1
20260831133042 80 145 0.0 2.6 0.00 0.04 0.00 91 1017.1
20260831132522 80 151 0.9 2.6 0.00 0.04 0.00 92 1017.1
20260831132026 79 70 0.9 2.6 0.00 0.04 0.00 95 1017.1
20260831131540 79 84 0.9 1.7 0.00 0.04 0.00 96 1017.1
20260831131026 79 85 0.0 1.7 0.00 0.04 0.00 97 1017.2
20260831130524 78 0 0.0 2.6 0.00 0.04 0.00 97 1017.2
20260831130050 78 0 0.9 2.6 0.00 0.04 0.00 97 1017.3
20260831125523 78 286 0.0 2.6 0.00 0.04 0.00 97 1017.2
20260831125018 78 0 0.0 2.6 0.00 0.04 0.00 97 1017.1
20260831124540 77 45 0.0 1.7 0.00 0.04 0.00 97 1017.0
20260831124020 77 0 0.0 0.0 0.00 0.04 0.00 97 1017.0
20260831123524 77 0 0.0 0.0 0.00 0.04 0.00 97 1017.0
20260831123050 77 0 0.0 0.0 0.00 0.04 0.00 97 1016.8
20260831122525 76 0 0.0 0.0 0.00 0.04 0.00 97 1016.7
20260831122024 76 0 0.0 0.0 0.00 0.04 0.00 97 1016.7
20260831121544 75 0 0.0 0.0 0.00 0.04 0.00 97 1016.6
20260831121022 75 0 0.0 0.0 0.00 0.04 0.00 97 1016.6
20260831120525 75 0 0.0 0.0 0.00 0.04 0.00 97 1016.7
20260831120043 74 0 0.0 0.0 0.00 0.04 0.00 97 1016.6
20260831115519 74 0 0.0 0.0 0.00 0.04 0.00 97 1016.5
20260831115024 74 0 0.0 0.0 0.00 0.04 0.00 97 1016.4
20260831114550 73 0 0.0 0.0 0.00 0.04 0.00 97 1016.3
20260831114025 73 0 0.0 0.0 0.00 0.04 0.00 97 1016.3
20260831113527 73 0 0.0 0.0 0.00 0.04 0.00 97 1016.3
20260831113046 73 0 0.0 0.0 0.00 0.04 0.00 97 1016.3
20260831112524 73 0 0.0 0.0 0.00 0.04 0.00 97 1016.3
20260831112021 73 0 0.0 0.0 0.00 0.04 0.00 97 1016.2
20260831111552 72 0 0.0 0.0 0.00 0.04 0.00 97 1016.2
20260831111020 73 0 0.0 0.0 0.00 0.04 0.00 97 1016.1
20260831110521 73 0 0.0 0.0 0.00 0.04 0.00 97 1016.1
20260831110047 72 0 0.0 0.0 0.00 0.04 0.00 97 1016.0
20260831105525 73 0 0.0 0.0 0.00 0.04 0.00 97 1016.0
20260831105023 72 0 0.0 0.0 0.00 0.04 0.00 97 1016.0
20260831104555 72 0 0.0 0.0 0.00 0.04 0.00 97 1015.9
20260831104019 72 0 0.0 0.0 0.00 0.04 0.00 97 1015.9
20260831103521 72 0 0.0 0.0 0.00 0.04 0.00 97 1015.7
20260831103041 72 0 0.0 0.0 0.00 0.04 0.00 97 1015.7
20260831102524 72 0 0.0 0.0 0.00 0.04 0.00 97 1015.6
20260831102025 72 0 0.0 0.0 0.00 0.04 0.00 97 1015.6
20260831101548 72 0 0.0 0.0 0.00 0.04 0.00 97 1015.5
20260831101025 73 0 0.0 0.0 0.00 0.04 0.00 97 1015.4
20260831100526 72 0 0.0 0.0 0.00 0.04 0.00 97 1015.4
20260831100047 72 0 0.0 0.0 0.00 0.04 0.00 97 1015.4
20260831095523 73 0 0.0 0.0 0.00 0.04 0.00 97 1015.4
20260831095023 72 0 0.0 0.0 0.00 0.04 0.00 97 1015.3
20260831094541 72 0 0.0 0.0 0.00 0.04 0.00 97 1015.3
20260831094020 72 0 0.0 0.0 0.00 0.04 0.00 97 1015.4
20260831093520 72 0 0.0 0.0 0.00 0.04 0.00 97 1015.4
20260831093049 73 0 0.0 0.0 0.00 0.04 0.00 97 1015.4
20260831092524 73 0 0.0 0.0 0.00 0.04 0.00 97 1015.3
20260831092025 73 0 0.0 0.0 0.00 0.04 0.00 97 1015.4
20260831091541 73 0 0.0 0.0 0.00 0.04 0.00 97 1015.4
20260831091020 72 0 0.0 0.0 0.00 0.04 0.00 96 1015.4
20260831090523 73 0 0.0 0.0 0.00 0.04 0.00 97 1015.3
20260831090043 73 0 0.0 0.0 0.00 0.04 0.00 97 1015.2
20260831085521 72 0 0.0 0.0 0.00 0.04 0.00 96 1015.2
20260831085020 73 0 0.0 0.0 0.00 0.04 0.00 96 1015.2
20260831084542 73 0 0.0 0.0 0.00 0.04 0.00 97 1015.2
20260831084026 73 0 0.0 0.0 0.00 0.04 0.00 96 1015.3
20260831083526 73 0 0.0 0.0 0.00 0.04 0.00 96 1015.3
20260831083045 73 0 0.0 0.0 0.00 0.04 0.00 97 1015.3
20260831082523 73 0 0.0 0.0 0.00 0.04 0.00 96 1015.3
20260831082023 73 0 0.0 0.0 0.00 0.04 0.00 96 1015.2
20260831081541 73 0 0.0 0.0 0.00 0.04 0.00 97 1015.3